• In Belgien
  • Länderverzeichnis
  • Für 7 Tage
  • Wassertemperatur
  • Satellitenkarten
  • Wetterkarte
  • Widgets
  • user-avatar
    Anmelden

    Stündliche Wetter Beveren

    Heute, 22 April, Sonntag

    Zeit Temperatur Niederschläge Wind Luftdruck Luftfeuchtigkeit
    00:00 +15°C° 0 mm 4 m/S 761 mmHg 70%
    01:00 +14°C° 0 mm 3 m/S 761 mmHg 72%
    02:00 +14°C° 0 mm 3 m/S 760 mmHg 74%
    03:00 +15°C° 0 mm 2 m/S 760 mmHg 77%
    04:00 +15°C° 0 mm 2 m/S 759 mmHg 78%
    05:00 +15°C° 0 mm 2 m/S 759 mmHg 79%
    06:00 +16°C° 0 mm 3 m/S 759 mmHg 75%
    07:00 +18°C° 0 mm 3 m/S 758 mmHg 70%
    08:00 +20°C° 0 mm 3 m/S 758 mmHg 64%
    09:00 +22°C° 0 mm 4 m/S 758 mmHg 59%
    10:00 +25°C° 0,1 mm 4 m/S 758 mmHg 55%
    11:00 +26°C° 0,1 mm 4 m/S 757 mmHg 52%
    12:00 +27°C° 0,1 mm 5 m/S 757 mmHg 49%
    13:00 +27°C° 0,1 mm 5 m/S 757 mmHg 50%
    14:00 +27°C° 0,1 mm 5 m/S 757 mmHg 51%
    15:00 +26°C° 0,1 mm 6 m/S 756 mmHg 52%
    16:00 +25°C° 0,1 mm 5 m/S 756 mmHg 57%
    17:00 +22°C° 0,1 mm 5 m/S 757 mmHg 62%
    18:00 +21°C° 0,1 mm 4 m/S 757 mmHg 67%
    19:00 +20°C° 0 mm 4 m/S 757 mmHg 69%
    20:00 +18°C° 0 mm 4 m/S 757 mmHg 72%
    21:00 +16°C° 0 mm 5 m/S 758 mmHg 74%
    22:00 +15°C° 0 mm 5 m/S 758 mmHg 74%
    23:00 +14°C° 0 mm 5 m/S 758 mmHg 75%

    Morgen, 23 April, Montag

    Zeit Temperatur Niederschläge Wind Luftdruck Luftfeuchtigkeit
    00:00 +13°C° 0 mm 5 m/S 759 mmHg 75%
    01:00 +13°C° 0 mm 5 m/S 759 mmHg 79%
    02:00 +12°C° 0 mm 5 m/S 759 mmHg 83%
    03:00 +11°C° 0 mm 4 m/S 759 mmHg 88%
    04:00 +10°C° 0 mm 5 m/S 760 mmHg 86%
    05:00 +10°C° 0 mm 5 m/S 760 mmHg 84%
    06:00 +10°C° 0 mm 5 m/S 761 mmHg 81%
    07:00 +12°C° 0 mm 5 m/S 761 mmHg 76%
    08:00 +13°C° 0 mm 5 m/S 761 mmHg 70%
    09:00 +14°C° 0 mm 6 m/S 762 mmHg 64%
    10:00 +15°C° 0 mm 6 m/S 762 mmHg 62%
    11:00 +15°C° 0 mm 6 m/S 762 mmHg 60%
    12:00 +16°C° 0 mm 6 m/S 762 mmHg 58%
    13:00 +16°C° 0 mm 6 m/S 762 mmHg 57%
    14:00 +16°C° 0 mm 5 m/S 762 mmHg 56%
    15:00 +16°C° 0 mm 5 m/S 762 mmHg 56%
    16:00 +15°C° 0 mm 5 m/S 762 mmHg 60%
    17:00 +15°C° 0 mm 4 m/S 762 mmHg 64%
    18:00 +14°C° 0 mm 4 m/S 762 mmHg 68%
    19:00 +13°C° 0 mm 4 m/S 763 mmHg 71%
    20:00 +12°C° 0 mm 4 m/S 763 mmHg 74%
    21:00 +10°C° 0 mm 4 m/S 763 mmHg 76%
    22:00 +10°C° 0 mm 4 m/S 763 mmHg 78%
    23:00 +8°C° 0 mm 4 m/S 763 mmHg 80%

    übermorgen, 24 April, Dienstag

    Zeit Temperatur Niederschläge Wind Luftdruck Luftfeuchtigkeit
    00:00 +8°C° 0 mm 4 m/S 763 mmHg 82%
    01:00 +8°C° 0 mm 4 m/S 763 mmHg 83%
    02:00 +8°C° 0 mm 4 m/S 762 mmHg 84%
    03:00 +7°C° 0 mm 5 m/S 762 mmHg 85%
    04:00 +8°C° 0 mm 5 m/S 762 mmHg 84%
    05:00 +8°C° 0 mm 5 m/S 762 mmHg 83%
    06:00 +9°C° 0 mm 6 m/S 762 mmHg 81%
    07:00 +10°C° 0 mm 6 m/S 762 mmHg 76%
    08:00 +13°C° 0 mm 6 m/S 762 mmHg 71%
    09:00 +14°C° 0 mm 7 m/S 762 mmHg 66%
    10:00 +15°C° 0 mm 7 m/S 762 mmHg 66%
    11:00 +16°C° 0 mm 7 m/S 761 mmHg 66%
    12:00 +17°C° 0 mm 7 m/S 761 mmHg 65%
    13:00 +17°C° 0 mm 6 m/S 761 mmHg 68%
    14:00 +17°C° 0 mm 6 m/S 761 mmHg 71%
    15:00 +16°C° 0 mm 6 m/S 761 mmHg 73%
    16:00 +16°C° 0 mm 6 m/S 761 mmHg 76%
    17:00 +15°C° 0 mm 5 m/S 760 mmHg 78%
    18:00 +15°C° 0 mm 5 m/S 760 mmHg 81%
    19:00 +14°C° 0,1 mm 5 m/S 760 mmHg 83%
    20:00 +14°C° 0,1 mm 4 m/S 761 mmHg 85%
    21:00 +13°C° 0,1 mm 4 m/S 761 mmHg 88%
    22:00 +13°C° 0,1 mm 4 m/S 761 mmHg 89%
    23:00 +12°C° 0,1 mm 4 m/S 761 mmHg 91%

    25 April, Mittwoch

    Zeit Temperatur Niederschläge Wind Luftdruck Luftfeuchtigkeit
    00:00 +12°C° 0,1 mm 3 m/S 760 mmHg 93%
    01:00 +12°C° 0,6 mm 3 m/S 760 mmHg 93%
    02:00 +12°C° 0,6 mm 3 m/S 760 mmHg 94%
    03:00 +12°C° 0,6 mm 3 m/S 760 mmHg 95%
    04:00 +12°C° 0,6 mm 3 m/S 760 mmHg 94%
    05:00 +11°C° 0,6 mm 3 m/S 760 mmHg 94%
    06:00 +11°C° 0,6 mm 3 m/S 760 mmHg 94%
    07:00 +12°C° 0,2 mm 3 m/S 760 mmHg 90%
    08:00 +12°C° 0,2 mm 4 m/S 760 mmHg 85%
    09:00 +13°C° 0,2 mm 4 m/S 760 mmHg 81%
    10:00 +14°C° 0 mm 5 m/S 760 mmHg 76%
    11:00 +14°C° 0 mm 5 m/S 760 mmHg 70%
    12:00 +15°C° 0 mm 6 m/S 760 mmHg 64%
    13:00 +15°C° 0 mm 6 m/S 760 mmHg 62%
    14:00 +15°C° 0 mm 6 m/S 760 mmHg 59%
    15:00 +15°C° 0 mm 6 m/S 760 mmHg 57%
    16:00 +14°C° 0 mm 6 m/S 760 mmHg 61%
    17:00 +13°C° 0 mm 5 m/S 760 mmHg 65%
    18:00 +12°C° 0 mm 5 m/S 760 mmHg 69%
    19:00 +10°C° 0,1 mm 5 m/S 760 mmHg 72%
    20:00 +9°C° 0,1 mm 5 m/S 760 mmHg 75%
    21:00 +8°C° 0,1 mm 5 m/S 761 mmHg 78%
    22:00 +8°C° 0 mm 5 m/S 760 mmHg 80%
    23:00 +8°C° 0 mm 5 m/S 760 mmHg 81%

    26 April, Donnerstag

    Zeit Temperatur Niederschläge Wind Luftdruck Luftfeuchtigkeit
    00:00 +7°C° 0 mm 5 m/S 760 mmHg 83%
    01:00 +7°C° 0 mm 6 m/S 760 mmHg 82%
    02:00 +7°C° 0 mm 6 m/S 760 mmHg 82%
    03:00 +7°C° 0 mm 6 m/S 760 mmHg 82%
    04:00 +7°C° 0 mm 6 m/S 760 mmHg 80%
    05:00 +7°C° 0 mm 6 m/S 761 mmHg 79%
    06:00 +7°C° 0 mm 6 m/S 761 mmHg 77%
    07:00 +8°C° 0 mm 7 m/S 761 mmHg 72%
    08:00 +9°C° 0 mm 7 m/S 761 mmHg 66%
    09:00 +10°C° 0 mm 8 m/S 762 mmHg 60%
    10:00 +11°C° 0 mm 8 m/S 762 mmHg 58%
    11:00 +11°C° 0 mm 8 m/S 762 mmHg 56%
    12:00 +12°C° 0 mm 8 m/S 762 mmHg 53%
    13:00 +12°C° 0,1 mm 8 m/S 762 mmHg 54%
    14:00 +12°C° 0,1 mm 7 m/S 762 mmHg 55%
    15:00 +12°C° 0,1 mm 7 m/S 762 mmHg 56%
    16:00 +11°C° 0,1 mm 6 m/S 762 mmHg 59%
    17:00 +11°C° 0,1 mm 6 m/S 762 mmHg 63%
    18:00 +10°C° 0,1 mm 5 m/S 762 mmHg 67%
    19:00 +9°C° 0,1 mm 5 m/S 762 mmHg 70%
    20:00 +8°C° 0,1 mm 5 m/S 762 mmHg 73%
    21:00 +7°C° 0,1 mm 4 m/S 763 mmHg 77%
    22:00 +7°C° 0 mm 4 m/S 763 mmHg 79%
    23:00 +6°C° 0 mm 4 m/S 763 mmHg 81%

    27 April, Freitag

    Zeit Temperatur Niederschläge Wind Luftdruck Luftfeuchtigkeit
    00:00 +7°C° 0 mm 3 m/S 763 mmHg 83%
    01:00 +5°C° 0 mm 3 m/S 762 mmHg 85%
    02:00 +5°C° 0 mm 3 m/S 762 mmHg 86%
    03:00 +5°C° 0 mm 3 m/S 762 mmHg 88%
    04:00 +5°C° 0 mm 3 m/S 762 mmHg 86%
    05:00 +7°C° 0 mm 3 m/S 762 mmHg 84%
    06:00 +7°C° 0 mm 2 m/S 762 mmHg 83%
    07:00 +9°C° 0 mm 2 m/S 762 mmHg 75%
    08:00 +10°C° 0 mm 2 m/S 762 mmHg 67%
    09:00 +12°C° 0 mm 2 m/S 762 mmHg 59%
    10:00 +13°C° 0 mm 2 m/S 762 mmHg 56%
    11:00 +14°C° 0 mm 2 m/S 761 mmHg 53%
    12:00 +14°C° 0 mm 2 m/S 761 mmHg 50%
    13:00 +13°C° 0 mm 3 m/S 761 mmHg 51%
    14:00 +13°C° 0 mm 3 m/S 761 mmHg 51%
    15:00 +13°C° 0 mm 3 m/S 760 mmHg 52%
    16:00 +13°C° 0 mm 3 m/S 760 mmHg 55%
    17:00 +12°C° 0 mm 3 m/S 760 mmHg 58%
    18:00 +11°C° 0 mm 3 m/S 760 mmHg 62%
    19:00 +11°C° 0 mm 3 m/S 760 mmHg 62%
    20:00 +10°C° 0 mm 3 m/S 760 mmHg 62%
    21:00 +10°C° 0 mm 3 m/S 760 mmHg 63%
    22:00 +8°C° 0 mm 4 m/S 760 mmHg 65%
    23:00 +8°C° 0 mm 4 m/S 759 mmHg 68%
    Mehr zeigen